TimeAKST,TemperatureF,Dew PointF,Humidity,Sea Level PressureIn,VisibilityMPH,Wind Direction,Wind SpeedMPH,Gust SpeedMPH,PrecipitationIn,Events,Conditions,WindDirDegrees,DateUTC
12:16 AM,30.2,21.2,69,29.84,10.0,NNW,29.9,39.1,N/A,,Overcast,340,2013-12-22 09:16:00
12:36 AM,30.2,23.0,75,29.85,10.0,NNW,26.5,39.1,N/A,,Overcast,340,2013-12-22 09:36:00
12:56 AM,28.4,24.8,86,29.85,6.0,North,29.9,39.1,N/A,,Overcast,350,2013-12-22 09:56:00
1:56 AM,30.2,21.2,69,29.87,10.0,NNW,31.1,38.0,N/A,,Overcast,340,2013-12-22 10:56:00
2:16 AM,30.2,23.0,75,29.86,10.0,North,31.1,41.4,N/A,,Overcast,350,2013-12-22 11:16:00
2:36 AM,30.2,23.0,75,29.88,10.0,NNW,31.1,38.0,N/A,,Overcast,340,2013-12-22 11:36:00
2:56 AM,28.4,21.2,74,29.88,10.0,NNW,27.6,38.0,N/A,,Overcast,340,2013-12-22 11:56:00
3:16 AM,28.4,21.2,74,29.89,10.0,NNW,26.5,38.0,N/A,,Overcast,340,2013-12-22 12:16:00
3:36 AM,30.2,21.2,69,29.89,10.0,NNW,21.9,29.9,N/A,,Overcast,340,2013-12-22 12:36:00
3:56 AM,28.4,21.2,74,29.90,10.0,NNW,29.9,39.1,N/A,,Overcast,340,2013-12-22 12:56:00
4:16 AM,28.4,21.2,74,29.90,10.0,NNW,33.4,36.8,N/A,,Overcast,340,2013-12-22 13:16:00
4:36 AM,30.2,21.2,69,29.92,10.0,NNW,23.0,34.5,N/A,,Overcast,340,2013-12-22 13:36:00
4:56 AM,30.2,23.0,75,29.91,10.0,North,25.3,36.8,N/A,,Overcast,350,2013-12-22 13:56:00
5:16 AM,28.4,23.0,80,29.92,10.0,NNW,24.2,32.2,N/A,,Overcast,340,2013-12-22 14:16:00
5:36 AM,28.4,21.2,74,29.93,10.0,North,25.3,35.7,N/A,,Overcast,350,2013-12-22 14:36:00
5:56 AM,28.4,21.2,74,29.95,10.0,NNW,17.3,26.5,N/A,,Overcast,330,2013-12-22 14:56:00
6:16 AM,28.4,23.0,80,29.96,10.0,NW,17.3,25.3,N/A,,Overcast,320,2013-12-22 15:16:00
6:36 AM,28.4,24.8,86,29.96,10.0,NNW,25.3,28.8,N/A,,Overcast,340,2013-12-22 15:36:00
6:56 AM,28.4,21.2,74,29.97,10.0,NNW,25.3,33.4,N/A,,Mostly Cloudy,340,2013-12-22 15:56:00
7:16 AM,28.4,21.2,74,29.97,10.0,NNW,20.7,34.5,N/A,,Mostly Cloudy,340,2013-12-22 16:16:00
7:36 AM,28.4,21.2,74,29.97,10.0,NNW,23.0,32.2,N/A,,Mostly Cloudy,340,2013-12-22 16:36:00
7:56 AM,28.4,21.2,74,29.98,10.0,North,27.6,33.4,N/A,,Overcast,350,2013-12-22 16:56:00
8:16 AM,28.4,21.2,74,29.98,10.0,NNW,31.1,36.8,N/A,,Overcast,340,2013-12-22 17:16:00
8:36 AM,28.4,21.2,74,30.00,10.0,NNW,26.5,35.7,N/A,,Overcast,340,2013-12-22 17:36:00
8:56 AM,28.4,21.2,74,30.00,10.0,NNW,25.3,-,N/A,,Mostly Cloudy,340,2013-12-22 17:56:00
9:16 AM,28.4,21.2,74,30.02,10.0,NNW,21.9,33.4,N/A,,Mostly Cloudy,340,2013-12-22 18:16:00
9:36 AM,28.4,19.4,69,30.02,10.0,North,21.9,29.9,N/A,,Mostly Cloudy,350,2013-12-22 18:36:00
9:56 AM,28.4,19.4,69,30.03,10.0,NNW,26.5,31.1,N/A,,Mostly Cloudy,340,2013-12-22 18:56:00
10:16 AM,28.4,21.2,74,30.04,10.0,NNW,21.9,35.7,N/A,,Mostly Cloudy,330,2013-12-22 19:16:00
10:36 AM,28.4,23.0,80,30.04,10.0,NNW,19.6,29.9,N/A,,Mostly Cloudy,340,2013-12-22 19:36:00
10:56 AM,28.4,21.2,74,30.04,10.0,NNW,23.0,28.8,N/A,,Mostly Cloudy,340,2013-12-22 19:56:00
11:16 AM,28.4,21.2,74,30.05,10.0,NNW,26.5,34.5,N/A,,Mostly Cloudy,340,2013-12-22 20:16:00
11:36 AM,30.2,21.2,69,30.06,10.0,NNW,25.3,33.4,N/A,,Mostly Cloudy,340,2013-12-22 20:36:00
11:56 AM,30.2,21.2,69,30.06,10.0,NNW,23.0,34.5,N/A,,Mostly Cloudy,330,2013-12-22 20:56:00
12:16 PM,28.4,19.4,69,30.07,10.0,NNW,24.2,27.6,N/A,,Mostly Cloudy,330,2013-12-22 21:16:00
12:36 PM,28.4,19.4,69,30.07,10.0,NNW,23.0,27.6,N/A,,Mostly Cloudy,340,2013-12-22 21:36:00
12:56 PM,30.2,19.4,64,30.06,10.0,NNW,27.6,32.2,N/A,,Mostly Cloudy,330,2013-12-22 21:56:00
1:46 PM,30.2,-9999,N/A,30.06,10.0,WNW,23.0,-,N/A,,Mostly Cloudy,300,2013-12-22 22:46:00
2:47 PM,28.4,-9999,N/A,30.06,10.0,NNW,20.7,-,N/A,,Mostly Cloudy,330,2013-12-22 23:47:00
3:52 PM,30.2,-9999,N/A,30.07,10.0,WNW,24.2,-,N/A,,Mostly Cloudy,300,2013-12-23 00:52:00
4:56 PM,28.4,15.8,59,30.09,10.0,NNW,23.0,-,N/A,,Mostly Cloudy,330,2013-12-23 01:56:00
5:56 PM,28.4,17.6,64,30.09,10.0,NNW,23.0,-,N/A,,Partly Cloudy,330,2013-12-23 02:56:00
6:56 PM,28.4,19.4,69,30.08,-9999.0,North,13.8,-,N/A,,Unknown,350,2013-12-23 03:56:00
7:16 PM,28.4,19.4,69,30.08,10.0,North,11.5,-,N/A,,Clear,350,2013-12-23 04:16:00
7:36 PM,28.4,19.4,69,30.08,10.0,North,9.2,-,N/A,,Clear,350,2013-12-23 04:36:00
7:56 PM,28.4,17.6,64,30.09,10.0,NNW,9.2,-,N/A,,Clear,340,2013-12-23 04:56:00
8:16 PM,28.4,17.6,64,30.10,10.0,Calm,Calm,-,N/A,,Clear,0,2013-12-23 05:16:00
8:36 PM,28.4,19.4,69,30.10,10.0,Calm,Calm,-,N/A,,Clear,0,2013-12-23 05:36:00
8:56 PM,26.6,17.6,69,30.10,10.0,East,4.6,-,N/A,,Clear,90,2013-12-23 05:56:00
9:16 PM,26.6,17.6,69,30.10,10.0,Calm,Calm,-,N/A,,Clear,0,2013-12-23 06:16:00
9:36 PM,26.6,17.6,69,30.10,10.0,Calm,Calm,-,N/A,,Clear,0,2013-12-23 06:36:00
9:56 PM,26.6,17.6,69,30.11,10.0,East,3.5,-,N/A,,Clear,90,2013-12-23 06:56:00
10:16 PM,26.6,17.6,69,30.10,10.0,East,3.5,-,N/A,,Clear,90,2013-12-23 07:16:00
10:36 PM,26.6,19.4,74,30.10,10.0,ENE,3.5,-,N/A,,Clear,70,2013-12-23 07:36:00
10:56 PM,26.6,19.4,74,30.10,10.0,East,4.6,-,N/A,,Clear,80,2013-12-23 07:56:00
11:16 PM,26.6,19.4,74,30.10,10.0,ENE,5.8,-,N/A,,Clear,70,2013-12-23 08:16:00
11:36 PM,26.6,19.4,74,30.10,10.0,East,5.8,-,N/A,,Clear,80,2013-12-23 08:36:00
11:56 PM,26.6,19.4,74,30.10,10.0,East,5.8,-,N/A,,Clear,80,2013-12-23 08:56:00